This is the latest recevied weather packets stored in our database for station/object WA9AFM. If no packets are shown the sender has not sent any weather packets the latest 10 day(s).
| Time | Temp. | Humidity | Pressure | Rain* | Wind** | Luminosity | Snow |
|---|---|---|---|---|---|---|---|
| 1787923739 | 23.33° C | 63% | 1013.7 hPa | 0 mm | - | - | - |
| 1787922838 | 23.33° C | 63% | 1013.3 hPa | 0 mm | - | - | - |
| 1787921940 | 22.78° C | 64% | 1013.1 hPa | 0 mm | - | - | - |
| 1787921039 | 22.78° C | 65% | 1013.1 hPa | 0 mm | - | - | - |
| 1787920138 | 22.22° C | 65% | 1012.8 hPa | 0 mm | - | - | - |
| 1787919240 | 22.22° C | 65% | 1012.7 hPa | 0 mm | - | - | - |
| 1787918339 | 22.78° C | 65% | 1012.6 hPa | 0 mm | - | - | - |
| 1787917438 | 22.78° C | 64% | 1012.6 hPa | 0 mm | - | - | - |
| 1787916539 | 22.78° C | 65% | 1012.5 hPa | 0 mm | - | - | - |
| 1787915639 | 22.78° C | 66% | 1012.4 hPa | 0 mm | - | - | - |
| 1787914740 | 22.78° C | 66% | 1012.3 hPa | 0 mm | - | - | - |
| 1787913839 | 22.78° C | 67% | 1012.3 hPa | 0 mm | - | - | - |
| 1787912938 | 23.33° C | 64% | 1012.3 hPa | 0 mm | - | - | - |
| 1787912040 | 23.33° C | 62% | 1012.3 hPa | 0 mm | - | - | - |
| 1787911139 | 23.33° C | 63% | 1012.3 hPa | 0 mm | - | - | - |
| 1787910238 | 23.33° C | 64% | 1012.3 hPa | 0 mm | - | - | - |
| 1787909338 | 23.33° C | 64% | 1012.3 hPa | 0 mm | - | - | - |
| 1787908440 | 23.89° C | 65% | 1012.2 hPa | 0 mm | - | - | - |
| 1787907539 | 23.89° C | 67% | 1012.1 hPa | 0 mm | - | - | - |
| 1787906638 | 23.89° C | 67% | 1012 hPa | 0 mm | - | - | - |
| 1787905739 | 23.89° C | 67% | 1012 hPa | 0 mm | - | - | - |
| 1787904970 | 23.89° C | 67% | 1012 hPa | 0 mm | - | - | - |
| 1787904072 | 24.44° C | 67% | 1012.1 hPa | 0 mm | - | - | - |
| 1787903171 | 24.44° C | 66% | 1012.2 hPa | 0 mm | - | - | - |
| 1787902270 | 25° C | 66% | 1012.2 hPa | 0 mm | - | - | - |
* Rain latest hour (hover to see other rain measurements)
** Current wind speed in m/s (hover to see current wind gust speed)